Regional Weather Roundup
Issued by NWS Albany, NY

Home | Current Version | Previous Version | Graphics & Text | Print | Product List | Glossary Off
Versions: 1 2 3 4 5 6 7 8 9 10 11 12 13 14 15 16 17 18 19 20 21 22 23 24 25 26 27 28 29 30 31 32 33 34 35 36 37 38 39 40 41 42 43 44 45 46 47 48 49 50

000
ASUS41 KALY 281210
RWRALY

NEW YORK STATE HOURLY WEATHER ROUNDUP
NATIONAL WEATHER SERVICE ALBANY NY
800 AM EDT MON JUL 28 2014

NOTE: "FAIR" INDICATES FEW OR NO CLOUDS BELOW 12,000 FEET WITH NO
SIGNIFICANT WEATHER AND/OR NO OBSTRUCTIONS TO VISIBILITY.

NYZ032-033-038>043-046>054-057>066-NYZ062>081-281300-
EAST


CITY           SKY/WX    TMP DP  RH WIND       PRES   REMARKS
ALBANY         CLOUDY    65  62  90 N10       29.55F
GLENS FALLS    HVY RAIN  64  62  93 N5        29.58R FOG
POUGHKEEPSIE   CLOUDY    71  68  90 CALM      29.52F
MONTGOMERY     PTSUNNY   70  66  87 S6        29.54S
WHITE PLAINS   CLOUDY    70  66  88 S6        29.56S
ISLIP          PTSUNNY   73  68  84 S9        29.54F
NEW YORK CITY  CLOUDY    72  67  84 S12       29.55S
CENTRAL PARK   CLOUDY    71  67  87 VRB3      29.58F
$$

NYZ005>009-017-018-044>046-055-056-281300-
CENTRAL


CITY           SKY/WX    TMP DP  RH WIND       PRES   REMARKS
FULTON         RAIN      65  62  90 NE8       29.56S FOG
SYRACUSE       HVY RAIN  66  64  94 CALM      29.54S FOG
ROME           RAIN      64  63  96 NE3       29.56F FOG
ELMIRA         CLOUDY    67  65  93 S5        29.53S
BINGHAMTON     SUNNY     64  63  96 SE3       29.56S
MONTICELLO     PTSUNNY   66  64  94 SW6       29.59R
$$

NYZ026>034-041>043-281300-
NORTH


CITY           SKY/WX    TMP DP  RH WIND       PRES   REMARKS
WATERTOWN      LGT RAIN  64  60  87 NE13      29.58R FOG
FORT DRUM      NOT AVBL
MASSENA        CLOUDY    64  61  90 NE9       29.64F
SARANAC LAKE   RAIN      57  57 100 NE5       29.63F FOG
PLATTSBURGH    CLOUDY    63  63 100 N7        29.63F
$$

NYZ001>004-010>016-019>021-281300-
WEST


CITY           SKY/WX    TMP DP  RH WIND       PRES   REMARKS
NIAGARA FALLS  LGT RAIN  63  60  90 NE16G28   29.60R FOG
BUFFALO        HVY RAIN  63  60  90 NE21G28   29.59R VSB 1
DUNKIRK        CLOUDY    63  61  93 SW9       29.59F
JAMESTOWN      CLOUDY    61  57  88 W7        29.64S
WELLSVILLE     LGT RAIN  63  58  83 NW7       29.63R
ROCHESTER      LGT RAIN  65  64  97 NE22G29   29.55R FOG
PENN YAN       CLOUDY    65  63  93 VRB5      29.53F
$$

             KEY
       WCI = WIND CHILL INDEX
       VSB = VISIBILITY
       HX  = HEAT INDEX
$$


USA.gov is the U.S. government's official web portal to all federal, state and local government web resources and services.